N511 EDNY-LOWS

Flight info

Callsign N511
Flight time 0h 46m
Altitude 11000
Route KPT1W KPT L856 TRAUN TRAUN2R
Aircraft DC3/M-SDF/S

Departure

Time 2026-04-25 17:43
Airport Bodensee Airport Friedrichshafen (EDNY)

Arrival

Time 2026-04-25 18:30
Airport Salzburg Airport (LOWS)
Time Latitude Longitude Altitude Speed Heading
2026-04-25 17:19 47.66874 9.51284 1360 ft 0 kts 229°
2026-04-25 17:32 47.66874 9.51283 1361 ft 1 kts 229°
2026-04-25 17:32 47.66869 9.51258 1360 ft 4 kts 278°
2026-04-25 17:32 47.66895 9.51199 1359 ft 8 kts 326°
2026-04-25 17:33 47.66951 9.51173 1358 ft 8 kts 30°
2026-04-25 17:33 47.66984 9.51235 1360 ft 9 kts 57°
2026-04-25 17:33 47.67026 9.51333 1361 ft 10 kts 59°
2026-04-25 17:33 47.67064 9.51430 1362 ft 8 kts 61°
2026-04-25 17:34 47.67098 9.51517 1363 ft 9 kts 61°
2026-04-25 17:34 47.67135 9.51620 1365 ft 17 kts 62°
2026-04-25 17:34 47.67202 9.51805 1368 ft 21 kts 62°
2026-04-25 17:34 47.67279 9.52008 1372 ft 21 kts 59°
2026-04-25 17:35 47.67359 9.52207 1372 ft 21 kts 59°
2026-04-25 17:35 47.67424 9.52343 1371 ft 6 kts 18°
2026-04-25 17:35 47.67431 9.52346 1371 ft 2 kts
2026-04-25 17:35 47.67474 9.52319 1372 ft 8 kts 314°
2026-04-25 17:36 47.67513 9.52261 1373 ft 9 kts 317°
2026-04-25 17:36 47.67533 9.52187 1375 ft 5 kts 242°
2026-04-25 17:36 47.67527 9.52171 1375 ft 0 kts 241°
2026-04-25 17:37 47.67484 9.52054 1372 ft 29 kts 240°
2026-04-25 17:37 47.67338 9.51691 1367 ft 49 kts 266°
2026-04-25 17:37 47.67200 9.51239 1358 ft 42 kts 204°
2026-04-25 17:37 47.67198 9.50968 1358 ft 25 kts 12°
2026-04-25 17:38 47.67219 9.50970 1358 ft 8 kts 159°
2026-04-25 17:38 47.67191 9.50985 1358 ft 15 kts 151°
2026-04-25 17:38 47.67073 9.51344 1360 ft 26 kts 115°
2026-04-25 17:38 47.67094 9.51534 1364 ft 19 kts 59°
2026-04-25 17:39 47.67195 9.51794 1367 ft 33 kts 61°
2026-04-25 17:39 47.67300 9.52071 1372 ft 26 kts 60°
2026-04-25 17:39 47.67386 9.52286 1372 ft 21 kts 58°
2026-04-25 17:39 47.67470 9.52489 1368 ft 23 kts 59°
2026-04-25 17:40 47.67533 9.52585 1369 ft 5 kts 344°
2026-04-25 17:40 47.67588 9.52549 1370 ft 10 kts 341°
2026-04-25 17:40 47.67635 9.52490 1371 ft 4 kts 274°
2026-04-25 17:40 47.67622 9.52415 1372 ft 9 kts 242°
2026-04-25 17:41 47.67609 9.52376 1373 ft 6 kts 243°
2026-04-25 17:41 47.67590 9.52325 1373 ft 0 kts 243°
2026-04-25 17:41 47.67565 9.52256 1374 ft 20 kts 241°
2026-04-25 17:41 47.67449 9.51964 1371 ft 39 kts 241°
2026-04-25 17:42 47.67288 9.51583 1365 ft 48 kts 231°
2026-04-25 17:42 47.67099 9.51063 1383 ft 65 kts 241°
2026-04-25 17:42 47.66843 9.50378 1500 ft 84 kts 236°
2026-04-25 17:42 47.66490 9.49556 1708 ft 98 kts 235°
2026-04-25 17:43 47.65996 9.48864 1826 ft 103 kts 194°
2026-04-25 17:43 47.65333 9.49262 1987 ft 100 kts 136°
2026-04-25 17:43 47.64896 9.49993 2196 ft 90 kts 131°
2026-04-25 17:43 47.64496 9.50740 2308 ft 90 kts 133°
2026-04-25 17:44 47.64091 9.51516 2377 ft 99 kts 128°
2026-04-25 17:44 47.63639 9.52385 2520 ft 106 kts 130°
2026-04-25 17:44 47.63224 9.53364 2671 ft 112 kts 119°
2026-04-25 17:44 47.62816 9.54378 2822 ft 117 kts 119°
2026-04-25 17:45 47.62371 9.55451 2976 ft 123 kts 119°
2026-04-25 17:45 47.62217 9.55812 3026 ft 124 kts 120°
2026-04-25 17:45 47.61934 9.56471 3116 ft 127 kts 119°
2026-04-25 17:45 47.61442 9.57597 3336 ft 130 kts 120°
2026-04-25 17:46 47.60932 9.58771 3576 ft 137 kts 120°
2026-04-25 17:46 47.60396 9.60029 3805 ft 147 kts 120°
2026-04-25 17:46 47.60088 9.61468 4013 ft 149 kts 84°
2026-04-25 17:46 47.60268 9.63029 4257 ft 152 kts 76°
2026-04-25 17:47 47.60494 9.64619 4455 ft 157 kts 75°
2026-04-25 17:47 47.60726 9.66226 4660 ft 157 kts 75°
2026-04-25 17:47 47.60956 9.67821 4921 ft 153 kts 75°
2026-04-25 17:47 47.61178 9.69358 5186 ft 149 kts 75°
2026-04-25 17:48 47.61625 9.72396 5620 ft 150 kts 75°
2026-04-25 17:48 47.61858 9.73966 5786 ft 154 kts 75°
2026-04-25 17:48 47.62101 9.75573 5938 ft 158 kts 75°
2026-04-25 17:49 47.62356 9.77213 6093 ft 163 kts 75°
2026-04-25 17:49 47.62698 9.78870 6232 ft 166 kts 59°
2026-04-25 17:49 47.63285 9.80378 6394 ft 168 kts 57°
2026-04-25 17:49 47.63695 9.82082 6552 ft 172 kts 74°
2026-04-25 17:50 47.63907 9.83257 6650 ft 173 kts 73°
2026-04-25 17:50 47.64333 9.85609 6890 ft 172 kts 73°
2026-04-25 17:50 47.64562 9.87389 7099 ft 171 kts 84°
2026-04-25 17:50 47.64668 9.89153 7296 ft 170 kts 83°
2026-04-25 17:51 47.64774 9.90954 7485 ft 169 kts 83°
2026-04-25 17:51 47.64874 9.92721 7689 ft 169 kts 83°
2026-04-25 17:51 47.64969 9.94477 7866 ft 170 kts 83°
2026-04-25 17:51 47.65064 9.96263 8047 ft 171 kts 83°
2026-04-25 17:52 47.65158 9.98058 8239 ft 172 kts 83°
2026-04-25 17:52 47.65189 9.98647 8300 ft 172 kts 83°
2026-04-25 17:52 47.65349 10.01671 8591 ft 173 kts 83°
2026-04-25 17:52 47.65439 10.03489 8761 ft 173 kts 83°
2026-04-25 17:53 47.65524 10.05289 8939 ft 173 kts 83°
2026-04-25 17:53 47.65612 10.07116 9110 ft 173 kts 83°
2026-04-25 17:53 47.65707 10.08970 9266 ft 177 kts 83°
2026-04-25 17:53 47.65811 10.10827 9421 ft 181 kts 83°
2026-04-25 17:54 47.65924 10.12727 9573 ft 184 kts 83°
2026-04-25 17:54 47.66047 10.14672 9730 ft 186 kts 83°
2026-04-25 17:54 47.66172 10.16643 9884 ft 188 kts 83°
2026-04-25 17:54 47.66298 10.18623 10046 ft 189 kts 83°
2026-04-25 17:55 47.66423 10.20615 10204 ft 190 kts 83°
2026-04-25 17:55 47.66543 10.22606 10356 ft 191 kts 83°
2026-04-25 17:55 47.66661 10.24606 10505 ft 191 kts 83°
2026-04-25 17:55 47.66793 10.26624 10661 ft 191 kts 81°
2026-04-25 17:56 47.66956 10.28650 10815 ft 192 kts 81°
2026-04-25 17:56 47.67113 10.30643 10963 ft 192 kts 81°
2026-04-25 17:56 47.67268 10.32654 11112 ft 193 kts 81°
2026-04-25 17:56 47.67426 10.34702 11119 ft 197 kts 81°
2026-04-25 17:57 47.67590 10.36802 11121 ft 198 kts 81°
2026-04-25 17:57 47.67749 10.38884 11128 ft 198 kts 81°
2026-04-25 17:57 47.67909 10.40952 11130 ft 199 kts 81°
2026-04-25 17:57 47.67960 10.41638 11131 ft 199 kts 81°
2026-04-25 17:58 47.68231 10.45152 11124 ft 200 kts 81°
2026-04-25 17:58 47.68386 10.47227 11123 ft 200 kts 81°
2026-04-25 17:58 47.68542 10.49310 11134 ft 200 kts 81°
2026-04-25 17:58 47.68698 10.51402 11127 ft 200 kts 81°
2026-04-25 17:59 47.68853 10.53497 11135 ft 200 kts 81°
2026-04-25 17:59 47.69008 10.55582 11126 ft 199 kts 81°
2026-04-25 17:59 47.69159 10.57653 11132 ft 197 kts 81°
2026-04-25 17:59 47.69310 10.59699 11135 ft 196 kts 81°
2026-04-25 18:00 47.69457 10.61732 11124 ft 196 kts 81°
2026-04-25 18:00 47.69602 10.63753 11124 ft 195 kts 81°
2026-04-25 18:00 47.69747 10.65770 11124 ft 193 kts 82°
2026-04-25 18:00 47.69890 10.67774 11129 ft 192 kts 81°
2026-04-25 18:01 47.70032 10.69770 11131 ft 192 kts 81°
2026-04-25 18:01 47.70176 10.71792 11137 ft 192 kts 81°
2026-04-25 18:01 47.70316 10.73791 11114 ft 194 kts 82°
2026-04-25 18:01 47.70458 10.75819 11112 ft 192 kts 82°
2026-04-25 18:02 47.70597 10.77805 11128 ft 191 kts 82°
2026-04-25 18:02 47.70737 10.79799 11130 ft 191 kts 81°
2026-04-25 18:02 47.70877 10.81804 11117 ft 192 kts 81°
2026-04-25 18:02 47.71016 10.83802 11126 ft 191 kts 81°
2026-04-25 18:03 47.71153 10.85805 11122 ft 192 kts 82°
2026-04-25 18:03 47.71289 10.87792 11117 ft 191 kts 81°
2026-04-25 18:03 47.71428 10.89798 11120 ft 191 kts 81°
2026-04-25 18:03 47.71561 10.91775 11129 ft 192 kts 81°
2026-04-25 18:04 47.71698 10.93801 11121 ft 192 kts 81°
2026-04-25 18:04 47.71834 10.95808 11126 ft 192 kts 81°
2026-04-25 18:04 47.71968 10.97819 11126 ft 193 kts 81°
2026-04-25 18:04 47.72102 10.99844 11106 ft 193 kts 81°
2026-04-25 18:05 47.72235 11.01847 11114 ft 193 kts 81°
2026-04-25 18:05 47.72369 11.03865 11122 ft 192 kts 81°
2026-04-25 18:05 47.72503 11.05899 11122 ft 192 kts 81°
2026-04-25 18:05 47.72634 11.07908 11123 ft 192 kts 82°
2026-04-25 18:06 47.72767 11.09919 11127 ft 193 kts 81°
2026-04-25 18:06 47.72910 11.11959 11116 ft 194 kts 81°
2026-04-25 18:06 47.73058 11.13997 11108 ft 194 kts 81°
2026-04-25 18:06 47.73211 11.16036 11111 ft 194 kts 81°
2026-04-25 18:07 47.73368 11.18073 11102 ft 193 kts 81°
2026-04-25 18:07 47.73520 11.20090 11115 ft 192 kts 81°
2026-04-25 18:07 47.73671 11.22073 11113 ft 192 kts 81°
2026-04-25 18:07 47.73824 11.24080 11119 ft 192 kts 81°
2026-04-25 18:08 47.73975 11.26109 11114 ft 192 kts 81°
2026-04-25 18:08 47.74127 11.28106 11110 ft 192 kts 81°
2026-04-25 18:08 47.74278 11.30096 11125 ft 191 kts 81°
2026-04-25 18:08 47.74425 11.32067 11124 ft 191 kts 81°
2026-04-25 18:09 47.74572 11.34041 11130 ft 191 kts 81°
2026-04-25 18:09 47.74719 11.36047 11135 ft 192 kts 81°
2026-04-25 18:09 47.74865 11.38027 11128 ft 193 kts 81°
2026-04-25 18:09 47.74913 11.38687 11126 ft 194 kts 81°
2026-04-25 18:10 47.75161 11.42020 11100 ft 193 kts 81°
2026-04-25 18:10 47.75307 11.44018 11126 ft 192 kts 81°
2026-04-25 18:10 47.75453 11.46029 11126 ft 193 kts 81°
2026-04-25 18:10 47.75600 11.48020 11113 ft 193 kts 81°
2026-04-25 18:11 47.75743 11.50020 11106 ft 192 kts 81°
2026-04-25 18:11 47.75886 11.52014 11130 ft 193 kts 81°
2026-04-25 18:11 47.76031 11.54040 11116 ft 195 kts 81°
2026-04-25 18:11 47.76179 11.56066 11104 ft 194 kts 81°
2026-04-25 18:12 47.76322 11.58077 11114 ft 192 kts 81°
2026-04-25 18:12 47.76462 11.60081 11122 ft 193 kts 81°
2026-04-25 18:12 47.76601 11.62096 11121 ft 193 kts 81°
2026-04-25 18:12 47.76741 11.64115 11124 ft 193 kts 81°
2026-04-25 18:13 47.76881 11.66120 11115 ft 193 kts 82°
2026-04-25 18:13 47.77022 11.68116 11117 ft 193 kts 82°
2026-04-25 18:13 47.77160 11.70138 11124 ft 192 kts 82°
2026-04-25 18:14 47.77432 11.74177 11119 ft 192 kts 82°
2026-04-25 18:14 47.77566 11.76184 11125 ft 192 kts 82°
2026-04-25 18:14 47.77702 11.78203 11132 ft 192 kts 82°
2026-04-25 18:14 47.77836 11.80231 11126 ft 193 kts 82°
2026-04-25 18:15 47.77971 11.82265 11127 ft 194 kts 82°
2026-04-25 18:15 47.78110 11.84321 11116 ft 195 kts 82°
2026-04-25 18:15 47.78247 11.86379 11110 ft 195 kts 82°
2026-04-25 18:15 47.78382 11.88416 11113 ft 194 kts 82°
2026-04-25 18:16 47.78515 11.90455 11123 ft 194 kts 82°
2026-04-25 18:16 47.78645 11.92498 11123 ft 193 kts 82°
2026-04-25 18:16 47.78909 11.96566 11127 ft 194 kts 82°
2026-04-25 18:17 47.79041 11.98607 11127 ft 194 kts 82°
2026-04-25 18:17 47.79173 12.00671 11132 ft 194 kts 82°
2026-04-25 18:17 47.79304 12.02705 11125 ft 195 kts 82°
2026-04-25 18:17 47.79440 12.04783 11120 ft 195 kts 82°
2026-04-25 18:18 47.79576 12.06804 11123 ft 195 kts 82°
2026-04-25 18:18 47.79722 12.08863 11119 ft 195 kts 81°
2026-04-25 18:18 47.79870 12.10911 11128 ft 194 kts 82°
2026-04-25 18:18 47.80022 12.12950 11127 ft 194 kts 82°
2026-04-25 18:19 47.80174 12.14983 11127 ft 194 kts 82°
2026-04-25 18:19 47.80418 12.16984 11131 ft 193 kts 76°
2026-04-25 18:19 47.80706 12.18993 11126 ft 193 kts 75°
2026-04-25 18:19 47.80995 12.20995 11101 ft 195 kts 76°
2026-04-25 18:20 47.81294 12.23066 10920 ft 203 kts 75°
2026-04-25 18:20 47.81602 12.25181 10773 ft 208 kts 75°
2026-04-25 18:20 47.81920 12.27349 10616 ft 213 kts 75°
2026-04-25 18:20 47.82247 12.29556 10452 ft 215 kts 75°
2026-04-25 18:21 47.82582 12.31807 10277 ft 218 kts 75°
2026-04-25 18:21 47.82915 12.34059 10099 ft 219 kts 75°
2026-04-25 18:21 47.83254 12.36333 9929 ft 220 kts 75°
2026-04-25 18:21 47.83597 12.38611 9755 ft 221 kts 75°
2026-04-25 18:22 47.83940 12.40885 9584 ft 221 kts 75°
2026-04-25 18:22 47.84056 12.41649 9529 ft 221 kts 75°
2026-04-25 18:22 47.84626 12.45443 9240 ft 221 kts 75°
2026-04-25 18:22 47.84972 12.47732 9070 ft 222 kts 75°
2026-04-25 18:23 47.85323 12.50023 8698 ft 227 kts 75°
2026-04-25 18:23 47.85632 12.52356 8331 ft 228 kts 77°
2026-04-25 18:23 47.85941 12.54709 7937 ft 229 kts 77°
2026-04-25 18:23 47.86254 12.57090 7533 ft 230 kts 77°
2026-04-25 18:24 47.86512 12.59469 7123 ft 231 kts 86°
2026-04-25 18:24 47.86319 12.61851 6745 ft 229 kts 102°
2026-04-25 18:24 47.85992 12.64210 6343 ft 229 kts 101°
2026-04-25 18:24 47.85705 12.66545 6021 ft 225 kts 97°
2026-04-25 18:25 47.85485 12.68880 5679 ft 223 kts 98°
2026-04-25 18:25 47.85278 12.71161 5345 ft 220 kts 95°
2026-04-25 18:25 47.85278 12.73461 5004 ft 217 kts 85°
2026-04-25 18:25 47.85340 12.75708 4661 ft 217 kts 85°
2026-04-25 18:26 47.85399 12.77974 4297 ft 217 kts 86°
2026-04-25 18:26 47.85440 12.80257 3918 ft 217 kts 88°
2026-04-25 18:26 47.85326 12.82516 3548 ft 216 kts 91°
2026-04-25 18:26 47.85084 12.84743 3140 ft 219 kts 105°
2026-04-25 18:27 47.84544 12.86817 3074 ft 205 kts 110°
2026-04-25 18:27 47.83959 12.88755 3021 ft 195 kts 110°
2026-04-25 18:27 47.83414 12.90580 3010 ft 188 kts 110°
2026-04-25 18:27 47.82890 12.92322 3027 ft 179 kts 111°
2026-04-25 18:28 47.82413 12.93938 2839 ft 159 kts 108°
2026-04-25 18:28 47.82100 12.95422 2543 ft 135 kts 101°
2026-04-25 18:28 47.81891 12.96678 2245 ft 111 kts 98°
2026-04-25 18:29 47.81622 12.98532 1861 ft 80 kts 120°
2026-04-25 18:29 47.81218 12.99141 1672 ft 84 kts 140°
2026-04-25 18:30 47.79919 13.00030 1411 ft 44 kts 158°
2026-04-25 18:30 47.79601 13.00226 1408 ft 22 kts 146°
2026-04-25 18:30 47.79477 13.00324 1410 ft 16 kts 152°
2026-04-25 18:30 47.79454 13.00385 1410 ft 9 kts 79°
2026-04-25 18:31 47.79475 13.00503 1408 ft 13 kts 90°
2026-04-25 18:31 47.79424 13.00593 1407 ft 10 kts 123°
2026-04-25 18:31 47.79435 13.00699 1408 ft 1 kts 302°
2026-04-25 18:31 47.79436 13.00697 1408 ft 0 kts 273°